WORLDVIEW-4 (WV-4)

Last updated on Mon Sep 14 2020 05:43:41 GMT+0000 (Coordinated Universal Time)

1 41848U 16067A 20257.87460130 .00000371 00000-0 11511-4 0 9994 2 41848 97.8557 12.4488 0012792 155.2972 204.8888 15.40439606210444

Satellite not in orbit

WORLDVIEW-4 (WV-4)